Tracking 25193 objects as of 17-Jan-2022
HD Live streaming from Space Station
objects crossing your sky now

STARLINK-2319

Track STARLINK-2319 now!
10-day predictions
STARLINK-2319 is classified as:


NORAD ID: 47790
Int'l Code: 2021-018D
Perigee: 552.8 km
Apogee: 555.9 km
Inclination: 53.1 °
Period: 95.6 minutes
Semi major axis: 6925 km
RCS: Unknown
Launch date: March 11, 2021
Source: United States (US)
Launch site: AIR FORCE EASTERN TEST RANGE (AFETR)
aabbcc
Your satellite tracking list
Your tracking list is empty




NASA's NSSDC Master Catalog

Two Line Element Set (TLE):
1 47790U 21018D   22016.69550851  .00000643  00000-0  62085-4 0  9997
2 47790  53.0533 173.7178 0002269  90.0751 270.0498 15.06409521 48637
Source of the keplerian elements: AFSPC